Weather History for Tallahassee, FL

Change the Weather History Date:

Wednesday, December 12, 2012

  Actual Average Record
Temperature  
Mean Temperature 52 °F 54 °F  
Max Temperature 54 °F 66 °F 82 °F (1971)
Min Temperature 49 °F 42 °F 18 °F (1962)
Degree Days  
Heating Degree Days 13    
Month to date heating degree days 29  
Since 1 July heating degree days 287  
Cooling Degree Days 0    
Month to date cooling degree days 12  
Year to date cooling degree days 2970  
Growing Degree Days 1 (Base 50)    
Moisture  
Dew Point 48 °F    
Average Humidity 91    
Maximum Humidity 96    
Minimum Humidity 86    
Precipitation  
Precipitation 0.87 in 0.13 in 3.30 in (1985)
Month to date precipitation 0.92 1.55  
Year to date precipitation 56.96 56.88  
Sea Level Pressure  
Sea Level Pressure 30.12 in    
Wind  
Wind Speed 6 mph (North)    
Max Wind Speed 13 mph    
Max Gust Speed 17 mph    
Visibility 5 miles    
Events Rain    
T = Trace of Precipitation, MM = Missing Value Source: NWS Daily Summary

Daily Weather History Graph

Daily Weather History Graph

Search for Another Location

Airport:

Trip Planner

Search our weather history database for the weather conditions in past years. The results will help you decide how hot, cold, wet, or windy it might be!

Date:

Astronomy

Dec. 12, 2012 Rise Set
Actual Time 7:25 AM EST 5:37 PM EST
Civil Twilight 6:58 AM EST 6:04 PM EST
Nautical Twilight 6:28 AM EST 6:34 PM EST
Astronomical Twilight 5:59 AM EST 7:03 PM EST
Moon 6:29 AM EST (12/12) 5:12 PM EST (12/12)
Length of Visible Light 11h 05m
Length of Day
10h 12m
Waning Crescent, 1% of the Moon is Illuminated
Dec 12
Waning Crescent
Dec 13
New
Dec 20
First Quarter
Dec 28
Full
Jan 4
Last Quarter

Hourly Weather History & Observations

Time (EST) Temp. Dew Point Humidity Pressure Visibility Wind Dir Wind Speed Gust Speed Precip Events Conditions
12:03 AM 53.6 °F 48.2 °F 82% 30.12 in 10.0 mi North 8.1 mph - 0.00 in Rain Light Rain
12:44 AM 51.8 °F 46.4 °F 82% 30.13 in 8.0 mi North 8.1 mph - 0.00 in Rain Light Rain
12:53 AM 51.8 °F 48.2 °F 88% 30.13 in 8.0 mi NNW 8.1 mph - N/A Rain Light Rain
1:00 AM 51.8 °F 48.2 °F 88% 30.14 in 9.0 mi NNW 8.1 mph - 0.01 in Rain Light Rain
1:16 AM 51.8 °F 46.4 °F 82% 30.13 in 9.0 mi North 6.9 mph - 0.01 in Rain Light Rain
1:53 AM 50.0 °F 46.9 °F 89% 30.13 in 10.0 mi NE 3.5 mph - 0.02 in Rain Light Rain
2:53 AM 50.0 °F 46.9 °F 89% 30.09 in 10.0 mi ENE 4.6 mph - 0.01 in Rain Light Rain
3:21 AM 50.0 °F 46.4 °F 87% 30.07 in 10.0 mi North 4.6 mph - 0.00 in Rain Light Rain
3:53 AM 50.0 °F 46.9 °F 89% 30.06 in 10.0 mi ENE 5.8 mph - 0.01 in Rain Light Rain
4:53 AM 51.1 °F 48.0 °F 89% 30.06 in 8.0 mi East 5.8 mph - 0.00 in Rain Light Rain
5:12 AM 51.8 °F 48.2 °F 88% 30.06 in 10.0 mi NNE 4.6 mph - 0.00 in Rain Light Rain
5:22 AM 51.8 °F 48.2 °F 88% 30.07 in 10.0 mi NNE 3.5 mph - 0.00 in Rain Light Rain
5:53 AM 51.1 °F 48.0 °F 89% 30.06 in 10.0 mi NNE 5.8 mph - 0.00 in   Overcast
6:31 AM 51.8 °F 46.4 °F 82% 30.07 in 10.0 mi North 5.8 mph - N/A   Mostly Cloudy
6:53 AM 50.0 °F 46.4 °F 87% 30.09 in 10.0 mi North 6.9 mph - N/A   Overcast
7:53 AM 50.0 °F 46.0 °F 86% 30.13 in 8.0 mi NNW 10.4 mph - N/A   Overcast
8:26 AM 50.0 °F 46.4 °F 87% 30.15 in 1.0 mi NNW 8.1 mph - 0.06 in Rain Heavy Rain
8:53 AM 48.9 °F 46.9 °F 93% 30.14 in 1.0 mi North 3.5 mph - 0.25 in Rain Rain
9:30 AM 50.0 °F 46.4 °F 87% 30.15 in 1.5 mi NNE 4.6 mph - 0.05 in Rain Light Rain
9:50 AM 50.0 °F 46.4 °F 87% 30.16 in 1.5 mi North 4.6 mph - 0.07 in Rain Light Rain
9:53 AM 50.0 °F 46.9 °F 89% 30.16 in 1.5 mi North 4.6 mph - 0.07 in Rain Light Rain
10:02 AM 50.0 °F 46.4 °F 87% 30.16 in 1.5 mi North 3.5 mph - 0.00 in Rain Light Rain
10:53 AM 50.0 °F 48.0 °F 93% 30.17 in 1.0 mi NNE 3.5 mph - 0.13 in Rain Light Rain
11:22 AM 50.0 °F 48.2 °F 94% 30.16 in 2.0 mi North 4.6 mph - 0.11 in Rain Heavy Rain
11:34 AM 51.8 °F 48.2 °F 88% 30.16 in 2.5 mi NNW 3.5 mph - 0.16 in Rain Rain
11:45 AM 51.8 °F 48.2 °F 88% 30.14 in 2.5 mi NE 4.6 mph - 0.20 in Rain Heavy Rain
11:53 AM 51.1 °F 48.0 °F 89% 30.14 in 3.0 mi NE 4.6 mph - 0.23 in Rain Heavy Rain
12:01 PM 51.8 °F 48.2 °F 88% 30.14 in 2.0 mi Calm Calm - 0.02 in Rain Rain
12:21 PM 51.8 °F 48.2 °F 88% 30.13 in 2.0 mi NNW 3.5 mph - 0.04 in Rain Light Rain
12:48 PM 51.8 °F 48.2 °F 88% 30.12 in 2.0 mi NNW 3.5 mph - 0.06 in Rain Light Rain
12:53 PM 52.0 °F 50.0 °F 93% 30.11 in 2.0 mi North 3.5 mph - 0.07 in Rain Light Rain
1:53 PM 53.1 °F 50.0 °F 89% 30.07 in 2.0 mi NE 4.6 mph - 0.06 in Rain Light Rain
2:53 PM 54.0 °F 51.1 °F 90% 30.10 in 2.0 mi NW 5.8 mph - 0.01 in   Overcast
3:23 PM 53.6 °F 50.0 °F 88% 30.10 in 2.0 mi NNW 9.2 mph - 0.00 in   Overcast
3:53 PM 53.1 °F 50.0 °F 89% 30.10 in 2.0 mi North 4.6 mph - 0.00 in Rain Light Rain
4:26 PM 53.6 °F 50.0 °F 88% 30.10 in 2.0 mi North 3.5 mph - 0.00 in   Overcast
4:53 PM 53.1 °F 50.0 °F 89% 30.10 in 2.0 mi North 5.8 mph - 0.00 in Rain Light Rain
5:53 PM 53.1 °F 50.0 °F 89% 30.10 in 2.0 mi NNW 3.5 mph - 0.01 in   Overcast
6:38 PM 53.6 °F 50.0 °F 88% 30.13 in 2.0 mi NNW 4.6 mph - 0.00 in Rain Light Rain
6:53 PM 52.0 °F 50.0 °F 93% 30.13 in 2.0 mi NNW 9.2 mph - 0.00 in   Overcast
7:53 PM 51.1 °F 48.0 °F 89% 30.15 in 2.0 mi NNW 9.2 mph - 0.00 in   Overcast
8:53 PM 50.0 °F 46.9 °F 89% 30.17 in 2.0 mi NNW 10.4 mph - 0.00 in   Overcast
9:53 PM 50.0 °F 46.0 °F 86% 30.19 in 10.0 mi NNW 10.4 mph - N/A   Overcast
10:53 PM 50.0 °F 46.9 °F 89% 30.19 in 10.0 mi North 4.6 mph - N/A   Overcast
11:53 PM 50.0 °F 46.0 °F 86% 30.18 in 10.0 mi North 3.5 mph - N/A   Overcast